Starlink 32012

operational
NORAD ID: 60027 Int'l Des: 2024-111 Owner: SPXS Country: US Constellation: starlink
LEOCIRCULAR

关于 Starlink 32012

正在加载描述...

实时位置

正在加载3D地球...

即将过境

高度历史

Altitude vs Time

uPlot chart will show altitude changes over time

两行轨道根数

1 60027U 24111M 26035.82366509 .00000796 00000-0 39024-4 0 9993
2 60027 53.1590 228.1328 0001239 97.0926 263.0216 15.30188746 94000
Epoch: Feb 4, 2026 • Age: 21 hours

当前状态

高度 475.7 km
速度 7.63 km/s
星下点 22.99°N, 137.32°W
发射日期 Jun 8, 2024
运行时间 1.6 years
类型 internet

技术详情

分类 Payload
质量 730.00 kg
干质量 700.00 kg
总质量 730.00 kg
长度 0.30 m
直径 4.10 m
跨度 29.00 m
形状 Box + pan
制造商 SPXS
平台类型 Starlink V2M
阶段状态 In Orbit
所有者/国家 SPXS/US

大型星座

Loading constellations...